This is the latest recevied weather packets stored in our database for station/object VK5KJP. If no packets are shown the sender has not sent any weather packets the latest 10 day(s).
| Time | Temp. | Humidity | Pressure | Rain* | Wind** | Luminosity | Snow |
|---|---|---|---|---|---|---|---|
| 1777985752 | 13.89° C | 91% | 1026.7 hPa | 0 mm | - | - | - |
| 1777982752 | 14.44° C | 91% | 1026.8 hPa | 0 mm | - | - | - |
| 1777980952 | 14.44° C | 89% | 1026.8 hPa | 0 mm | - | - | - |
| 1777980325 | 14.44° C | 89% | 1026.9 hPa | 0 mm | - | - | - |
| 1777977952 | 14.44° C | 88% | 1026.9 hPa | 0 mm | - | - | - |
| 1777974352 | 15° C | 86% | 1026.8 hPa | 0 mm | - | - | - |
| 1777973772 | 15° C | 85% | 1026.6 hPa | 0 mm | - | - | - |
| 1777970151 | 16.11° C | 76% | 1026.1 hPa | 0 mm | - | - | - |
| 1777966535 | 16.11° C | 71% | 1025.6 hPa | 0 mm | - | - | - |
| 1777965951 | 16.67° C | 70% | 1025.6 hPa | 0 mm | - | - | - |
| 1777962951 | 16.67° C | 68% | 1025.3 hPa | 0 mm | - | - | - |
| 1777962335 | 16.67° C | 68% | 1025.4 hPa | 0 mm | - | - | - |
| 1777961152 | 16.67° C | 67% | 1025.4 hPa | 0 mm | - | - | - |
| 1777958751 | 17.22° C | 66% | 1025 hPa | 0 mm | - | - | - |
| 1777956951 | 16.67° C | 66% | 1025 hPa | 0 mm | - | - | - |
| 1777955751 | 17.22° C | 66% | 1025 hPa | 0 mm | - | - | - |
| 1777955145 | 17.22° C | 66% | 1025 hPa | 0 mm | - | - | - |
| 1777953935 | 17.22° C | 65% | 1025 hPa | 0 mm | - | - | - |
| 1777949735 | 16.67° C | 64% | 1025.9 hPa | 0 mm | - | - | - |
| 1777940751 | 15.56° C | 70% | 1026.3 hPa | 0 mm | - | - | - |
| 1777939551 | 15.56° C | 73% | 1026.2 hPa | 0 mm | - | - | - |
| 1777937771 | 15° C | 81% | 1026.2 hPa | 0 mm | - | - | - |
| 1777936551 | 15° C | 81% | 1025.9 hPa | 0 mm | - | - | - |
| 1777934751 | 14.44° C | 84% | 1025.6 hPa | 0 mm | - | - | - |
| 1777931151 | 12.22° C | 93% | 1025.1 hPa | 0 mm | - | - | - |
* Rain latest hour (hover to see other rain measurements)
** Current wind speed in m/s (hover to see current wind gust speed)